Location: Bakhuizen
(52.8696°N, 5.4575°E)
Time: 04:15:27
(UTC+00:00)

Nimbus 7 Rocket - Pass Details

Date: 26 September 2021
Orbit: 922 x 965 km, 99.4° (Epoch: 17 October)

Event Time Altitude Azimuth Distance (km) Brightness Sun altitude
Rises 22:49:17 0° 20° (NNE) 3,584 8.1 -38.1°
Reaches altitude 10° 22:51:53 10° 28° (NNE) 2,640 7.2 -38.2°
Enters shadow 22:54:06 22° 41° (NE) 1,914 6.3 -38.2°
